Location: Broekland
(52.3610°N, 6.2005°E)
Time: 01:01:10
(UTC+00:00)

Okean 1 - Pass Details

Date: 19 May 2025
Orbit: 477 x 499 km, 82.5° (Epoch: 15 June)

Event Time Altitude Azimuth Distance (km) Brightness Sun altitude
Exits shadow 21:43:35 18° 193° (SSW) 1,258 4.7 -13.9°
Maximum altitude 21:46:13 82° 280° (W) 501 3.1 -14.1°
Drops below altitude 10° 21:49:55 10° 9° (N) 1,683 6.7 -14.3°
Sets 21:52:01 0° 11° (N) 2,566 7.7 -14.5°
